Weather History for KFLD - November, 2013

Change the Weather History Date:

Tuesday, November 12, 2013

  Actual Average Record
Temperature  
Mean Temperature 24 °F -  
Max Temperature 30 °F 41 °F 64 °F (1964)
Min Temperature 18 °F 27 °F 6 °F (1986)
Degree Days  
Heating Degree Days 41    
Moisture  
Dew Point 11 °F    
Average Humidity 61    
Maximum Humidity 74    
Minimum Humidity 38    
Precipitation  
Precipitation 0.00 in - - ()
Sea Level Pressure  
Sea Level Pressure 30.64 in    
Wind  
Wind Speed 9 mph (WNW)    
Max Wind Speed 14 mph    
Max Gust Speed 22 mph    
Visibility 10 miles    
Events      
Averages and records for this station are not official NWS values.
T = Trace of Precipitation, MM = Missing Value Source: NWS Daily Summary

Daily Weather History Graph

Daily Weather History Graph

Search for Another Location

Airport or City:

Trip Planner

Search our weather history database for the weather conditions in past years. The results will help you decide how hot, cold, wet, or windy it might be!

Date:

Astronomy

Nov. 12, 2013 Rise Set
Actual Time 6:44 AM CST 4:31 PM CST
Civil Twilight 6:13 AM CST 5:01 PM CST
Nautical Twilight 5:39 AM CST 5:36 PM CST
Astronomical Twilight 5:05 AM CST 6:10 PM CST
Moon 1:53 PM CST (11/12) 1:24 AM CST (11/12)
Length of Visible Light 10h 47m
Length of Day
9h 46m
Waxing Gibbous, 76% of the Moon is Illuminated
Nov 12
Waxing Gibbous
Nov 17
Full
Nov 25
Last Quarter
Dec 2
New
Dec 9
First Quarter

Hourly Weather History & Observations

Time (CST) Temp. Windchill Dew Point Humidity Pressure Visibility Wind Dir Wind Speed Gust Speed Precip Events Conditions
12:53 AM 21.9 °F 12.5 °F 14.0 °F 72% 30.58 in 10.0 mi NW 8.1 mph - N/A   Clear
1:53 AM 19.9 °F 12.1 °F 12.9 °F 74% 30.60 in 10.0 mi NW 5.8 mph - N/A   Clear
2:53 AM 23.0 °F 13.1 °F 12.0 °F 63% 30.61 in 10.0 mi NNW 9.2 mph - N/A   Clear
3:53 AM 19.9 °F 9.3 °F 12.9 °F 74% 30.64 in 10.0 mi NW 9.2 mph - N/A   Clear
4:53 AM 19.0 °F 7.5 °F 12.0 °F 74% 30.66 in 10.0 mi WNW 10.4 mph - N/A   Clear
5:53 AM 18.0 °F 6.9 °F 10.9 °F 74% 30.68 in 10.0 mi WNW 9.2 mph - N/A   Clear
6:53 AM 18.0 °F 6.1 °F 10.9 °F 74% 30.71 in 10.0 mi WNW 10.4 mph - N/A   Clear
7:53 AM 19.9 °F 10.1 °F 12.0 °F 71% 30.71 in 10.0 mi WNW 8.1 mph - N/A   Clear
8:53 AM 21.9 °F 12.5 °F 12.0 °F 66% 30.71 in 10.0 mi WNW 8.1 mph - N/A   Clear
9:53 AM 24.1 °F 13.7 °F 12.9 °F 62% 30.72 in 10.0 mi NW 10.4 mph - N/A   Clear
10:53 AM 26.1 °F 15.0 °F 12.0 °F 55% 30.71 in 10.0 mi WNW 12.7 mph - N/A   Clear
11:53 AM 28.0 °F 17.5 °F 10.0 °F 47% 30.68 in 10.0 mi WNW 12.7 mph - N/A   Clear
12:53 PM 28.9 °F 18.6 °F 8.1 °F 41% 30.67 in 10.0 mi WNW 12.7 mph 21.9 mph N/A   Clear
1:53 PM 30.0 °F 19.5 °F 7.0 °F 38% 30.65 in 10.0 mi West 13.8 mph - N/A   Clear
2:53 PM 30.0 °F 20.0 °F 7.0 °F 38% 30.63 in 10.0 mi West 12.7 mph - N/A   Clear
3:53 PM 28.0 °F 18.6 °F 7.0 °F 41% 30.63 in 10.0 mi WNW 10.4 mph - N/A   Clear
4:53 PM 25.0 °F 17.1 °F 8.1 °F 49% 30.63 in 10.0 mi West 6.9 mph - N/A   Clear
5:53 PM 23.0 °F 15.8 °F 10.0 °F 58% 30.62 in 10.0 mi WSW 5.8 mph - N/A   Clear
6:53 PM 21.9 °F 13.4 °F 10.9 °F 63% 30.61 in 10.0 mi WSW 6.9 mph - N/A   Clear
7:53 PM 23.0 °F 13.1 °F 10.9 °F 60% 30.61 in 10.0 mi West 9.2 mph - N/A   Clear
8:53 PM 21.9 °F 13.4 °F 10.9 °F 63% 30.59 in 10.0 mi WSW 6.9 mph - N/A   Clear
9:53 PM 21.0 °F 13.4 °F 10.9 °F 65% 30.58 in 10.0 mi WSW 5.8 mph - N/A   Clear
10:53 PM 19.9 °F 11.1 °F 12.0 °F 71% 30.56 in 10.0 mi WSW 6.9 mph - N/A   Clear
11:53 PM 19.9 °F 11.1 °F 10.9 °F 68% 30.56 in 10.0 mi WSW 6.9 mph - N/A   Clear